• Join FlightAware (Why Join?)
  • Login
  • US Flag GB Flag 
17:55 EDT


 

Airport Tracker/Info


-or-


 

Live Flight TrackerFlight Track Log ✈ N400PU ✈ 29-Nov-2012 ✈ KAMW - KFWA

Flight Track Log - Related Links

Times and Time Zones

All times are in EST time to prevent confusion due to time zone crossing. See the N400PU flight status page for this flight to view local times or setup timezone preferences in your user account.

Time Position Orientation Groundspeed Altitude Reporting Facility
EST Latitude Longitude Course Direction KTS MPH feet Rate Location/Type
23:19 42.0186 -93.6053 67° East 171 197 1,800  Level Minneapolis Center
23:20 42.0383 -93.5417 67° East 238 274 4,200 2,700 Climbing Minneapolis Center
23:21 42.0086 -93.4772 122° Southeast 243 280 6,900 2,820 Climbing Minneapolis Center
23:22 41.9844 -93.3864 110° East 255 293 10,100 3,000 Climbing Minneapolis Center
23:23 41.9539 -93.2650 109° East 288 331 13,000 2,640 Climbing Minneapolis Center
23:24 41.9275 -93.1586 108° East 312 359 15,500 2,400 Climbing Minneapolis Center
23:25 41.8983 -93.0450 109° East 322 371 17,900 2,340 Climbing Minneapolis Center
23:26 41.8686 -92.9289 109° East 327 376 20,300 2,220 Climbing Minneapolis Center
23:27 41.8378 -92.8100 109° East 334 384 22,400 1,920 Climbing Minneapolis Center
23:28 41.8047 -92.6822 109° East 344 396 24,300 1,800 Climbing Minneapolis Center
23:29 41.7711 -92.5564 110° East 354 407 26,100 1,620 Climbing Minneapolis Center
23:30 41.7369 -92.4278 110° East 363 418 27,600 1,320 Climbing Minneapolis Center
23:31 41.7022 -92.2950 109° East 373 429 28,800 1,260 Climbing Minneapolis Center
23:32 41.6878 -92.1133 96° East 411 473 30,200 1,260 Climbing Minneapolis Center
23:33 41.6714 -91.9242 97° East 409 471 31,700 1,440 Climbing Chicago Center
23:34 41.6622 -91.7708 95° East 420 483 33,400 1,620 Climbing Chicago Center
23:35 41.6508 -91.6147 96° East 414 476 35,000 1,380 Climbing Chicago Center
23:36 41.6389 -91.4697 96° East 409 471 36,200 960 Climbing Chicago Center
23:37 41.6269 -91.3194 96° East 404 465 37,000 360 Climbing Chicago Center
23:38 41.6150 -91.1664 96° East 409 471 37,000  Level Chicago Center
23:39 41.6050 -90.9994 95° East 422 486 37,000  Level Chicago Center
23:40 41.5883 -90.8325 98° East 441 507 37,000  Level Chicago Center
23:41 41.5758 -90.6739 96° East 466 536 37,000  Level Chicago Center
23:42 41.5608 -90.5069 97° East 466 536 37,000  Level Chicago Center
23:43 41.5458 -90.3319 96° East 466 536 37,000  Level Chicago Center
23:44 41.5286 -90.1375 97° East 466 536 37,000  Level Chicago Center
23:45 41.5150 -89.9628 96° East 466 536 37,000  Level Chicago Center
23:46 41.4992 -89.7908 97° East 466 536 37,000  Level Chicago Center
23:47 41.4831 -89.6133 97° East 466 536 37,000  Level Chicago Center
23:48 41.4667 -89.4386 97° East 466 536 37,000  Level Chicago Center
23:49 41.4478 -89.2639 98° East 466 536 37,000  Level Chicago Center
23:50 41.4331 -89.1117 97° East 466 536 37,000  Level Chicago Center
23:51 41.4158 -88.9375 97° East 466 536 37,000  Level Chicago Center
23:52 41.3964 -88.7631 98° East 466 536 37,000 -60 Level Chicago Center
23:53 41.3786 -88.5889 98° East 466 536 36,900 -840 Descending Chicago Center
23:54 41.3606 -88.4122 98° East 471 542 35,400 -1,560 Descending Chicago Center
23:55 41.3425 -88.2408 98° East 471 542 33,800 -1,620 Descending Chicago Center
23:56 41.3219 -88.0725 99° East 464 534 32,200 -1,800 Descending Chicago Center
23:57 41.3050 -87.8878 97° East 464 534 30,200 -1,920 Descending Chicago Center
23:58 41.2861 -87.7250 99° East 458 527 28,400 -1,800 Descending Chicago Center
23:59 41.2692 -87.5653 98° East 446 513 26,700 -1,800 Descending Chicago Center
00:00 41.2519 -87.4056 98° East 446 513 24,900 -1,380 Descending Chicago Center
00:01 41.2347 -87.2486 98° East 441 507 24,000 -480 Descending Chicago Center
00:02 41.2192 -87.0944 98° East 430 495 24,000 -180 Level Chicago Center
00:03 41.1994 -86.9406 100° East 424 488 23,700 -1,020 Descending Chicago Center
00:04 41.1814 -86.7842 99° East 429 494 22,000 -1,680 Descending Chicago Center
00:05 41.1636 -86.6469 100° East 429 494 20,400 -1,680 Descending Chicago Center
00:06 41.1433 -86.5014 100° East 413 475 18,700 -1,620 Descending Chicago Center
00:07 41.1278 -86.3725 99° East 384 442 17,200 -1,740 Descending Chicago Center
00:08 41.1117 -86.2467 100° East 361 415 15,300 -1,920 Descending Chicago Center
00:09 41.0981 -86.1286 99° East 336 387 13,400 -1,920 Descending Chicago Center
00:10 41.0822 -86.0083 100° East 323 372 11,500 -1,920 Descending Chicago Center
00:11 41.0706 -85.8986 98° East 313 360 9,600 -1,860 Descending Chicago Center
00:12 41.0567 -85.7864 99° East 313 360 7,800 -1,920 Descending Chicago Center
00:13 41.0431 -85.6853 100° East 300 345 5,900 -1,980 Descending Chicago Center
00:14 41.0294 -85.5897 101° East 280 322 3,900 -1,860 Descending Chicago Center
00:15 41.0281 -85.4878 91° East 274 315 2,200 -1,740 Descending Chicago Center
00:17 40.9886 -85.2868 101° East  Level FlightAware Approximate
00:24 40.9785 -85.1952 108° East  Level Estimated
00:25 40.9785 -85.1952 108° East  Level Estimated
00:26 40.9785 -85.1952 108° East  Level Estimated
00:27 40.9785 -85.1952 108° East  Level Estimated
00:28 40.9785 -85.1952 108° East  Level Estimated